| time (UTC) | temp C | wind direction | speed KPH | gust KPH | rain 1hr cm | rain 24hr cm | rain mn cm | humidity % | barometer mb |
| 20260505140508 | 11 | 215 | 0.0 | 3.2 | 0.00 | 0.00 | 0.00 | 94 | 1015.5 |
| 20260505125011 | 11 | 257 | 0.0 | 3.2 | 0.00 | 0.00 | 0.00 | 92 | 1014.8 |
| 20260505124516 | 11 | 252 | 1.6 | 3.2 | 0.00 | 0.00 | 0.00 | 92 | 1014.9 |
| 20260505124008 | 11 | 227 | 1.6 | 3.2 | 0.00 | 0.00 | 0.00 | 92 | 1014.8 |
| 20260505123510 | 11 | 224 | 1.6 | 1.6 | 0.00 | 0.00 | 0.00 | 91 | 1014.8 |
| 20260505123018 | 11 | 225 | 1.6 | 1.6 | 0.00 | 0.00 | 0.00 | 91 | 1014.7 |
| 20260505122507 | 11 | 223 | 1.6 | 1.6 | 0.00 | 0.00 | 0.00 | 91 | 1014.7 |
| 20260505122009 | 11 | 221 | 1.6 | 1.6 | 0.00 | 0.00 | 0.00 | 91 | 1014.7 |
| 20260505121522 | 11 | 229 | 1.6 | 1.6 | 0.00 | 0.00 | 0.00 | 90 | 1014.7 |
| 20260505121009 | 11 | 215 | 1.6 | 3.2 | 0.00 | 0.00 | 0.00 | 90 | 1014.6 |
| 20260505120507 | 11 | 223 | 0.0 | 3.2 | 0.00 | 0.00 | 0.00 | 90 | 1014.6 |
| 20260505120034 | 11 | 232 | 0.0 | 3.2 | 0.00 | 0.00 | 0.00 | 90 | 1014.6 |
| 20260505115507 | 11 | 240 | 0.0 | 3.2 | 0.00 | 0.00 | 0.00 | 90 | 1014.6 |
| 20260505115008 | 11 | 240 | 0.0 | 3.2 | 0.00 | 0.00 | 0.00 | 90 | 1014.6 |
| 20260505114519 | 11 | 240 | 1.6 | 3.2 | 0.00 | 0.00 | 0.00 | 89 | 1014.7 |
| 20260505114012 | 11 | 262 | 0.0 | 3.2 | 0.00 | 0.00 | 0.00 | 89 | 1014.7 |
| 20260505113506 | 11 | 262 | 0.0 | 3.2 | 0.00 | 0.00 | 0.00 | 89 | 1014.7 |
| 20260505113019 | 11 | 262 | 0.0 | 3.2 | 0.00 | 0.00 | 0.00 | 89 | 1014.6 |
| 20260505112511 | 11 | 262 | 0.0 | 3.2 | 0.00 | 0.00 | 0.00 | 89 | 1014.6 |
| 20260505112010 | 11 | 262 | 0.0 | 1.6 | 0.00 | 0.00 | 0.00 | 89 | 1014.6 |
| 20260505111529 | 11 | 262 | 1.6 | 1.6 | 0.00 | 0.00 | 0.00 | 90 | 1014.6 |
| 20260505111009 | 11 | 242 | 0.0 | 3.2 | 0.00 | 0.00 | 0.00 | 89 | 1014.6 |
| 20260505110510 | 11 | 215 | 0.0 | 3.2 | 0.00 | 0.00 | 0.00 | 89 | 1014.5 |
| 20260505102006 | 11 | 271 | 0.0 | 3.2 | 0.00 | 0.00 | 0.00 | 91 | 1014.4 |
| 20260505101519 | 11 | 271 | 0.0 | 3.2 | 0.00 | 0.00 | 0.00 | 91 | 1014.4 |
| 20260505101009 | 11 | 242 | 0.0 | 3.2 | 0.00 | 0.00 | 0.00 | 92 | 1014.4 |
| 20260505100509 | 11 | 242 | 0.0 | 3.2 | 0.00 | 0.00 | 0.00 | 92 | 1014.4 |
| 20260505100027 | 11 | 242 | 0.0 | 3.2 | 0.00 | 0.00 | 0.00 | 92 | 1014.4 |
| 20260505095507 | 11 | 232 | 0.0 | 3.2 | 0.00 | 0.00 | 0.00 | 92 | 1014.4 |
| 20260505095011 | 11 | 234 | 1.6 | 3.2 | 0.00 | 0.00 | 0.00 | 92 | 1014.3 |
| 20260505094520 | 11 | 259 | 1.6 | 3.2 | 0.00 | 0.00 | 0.00 | 92 | 1014.3 |
| 20260505094009 | 10 | 259 | 0.0 | 3.2 | 0.00 | 0.00 | 0.00 | 92 | 1014.2 |
| 20260505093509 | 10 | 259 | 0.0 | 3.2 | 0.00 | 0.00 | 0.00 | 92 | 1014.2 |
| 20260505093022 | 10 | 259 | 0.0 | 3.2 | 0.00 | 0.00 | 0.00 | 92 | 1014.1 |
| 20260505092509 | 10 | 259 | 0.0 | 1.6 | 0.00 | 0.00 | 0.00 | 92 | 1014.2 |
| 20260505092009 | 10 | 259 | 1.6 | 1.6 | 0.00 | 0.00 | 0.00 | 92 | 1014.1 |
| 20260505091521 | 10 | 254 | 0.0 | 1.6 | 0.00 | 0.00 | 0.00 | 92 | 1014.0 |
| 20260505091009 | 10 | 256 | 0.0 | 3.2 | 0.00 | 0.00 | 0.00 | 92 | 1014.0 |
| 20260505090508 | 10 | 239 | 1.6 | 3.2 | 0.00 | 0.00 | 0.00 | 92 | 1013.8 |
| 20260505090021 | 10 | 261 | 1.6 | 1.6 | 0.00 | 0.00 | 0.00 | 92 | 1013.8 |
| 20260505085507 | 10 | 261 | 0.0 | 1.6 | 0.00 | 0.00 | 0.00 | 92 | 1013.6 |
| 20260505085009 | 10 | 258 | 1.6 | 1.6 | 0.00 | 0.00 | 0.00 | 92 | 1013.6 |
| 20260505084533 | 10 | 242 | 1.6 | 1.6 | 0.00 | 0.00 | 0.00 | 91 | 1013.6 |
| 20260505084010 | 10 | 232 | 1.6 | 3.2 | 0.00 | 0.00 | 0.00 | 91 | 1013.5 |
| 20260505083509 | 11 | 225 | 1.6 | 3.2 | 0.00 | 0.00 | 0.00 | 91 | 1013.5 |
| 20260505083030 | 11 | 260 | 1.6 | 3.2 | 0.00 | 0.00 | 0.00 | 91 | 1013.5 |
| 20260505082509 | 11 | 252 | 1.6 | 1.6 | 0.00 | 0.00 | 0.00 | 91 | 1013.5 |
| 20260505082007 | 11 | 259 | 0.0 | 3.2 | 0.00 | 0.00 | 0.00 | 91 | 1013.4 |
| 20260505081525 | 11 | 260 | 1.6 | 3.2 | 0.00 | 0.00 | 0.00 | 91 | 1013.3 |
| 20260505081014 | 11 | 261 | 1.6 | 3.2 | 0.00 | 0.00 | 0.00 | 91 | 1013.3 |
| 20260505080507 | 11 | 261 | 1.6 | 3.2 | 0.00 | 0.00 | 0.00 | 90 | 1013.3 |
| 20260505080033 | 11 | 223 | 0.0 | 3.2 | 0.00 | 0.00 | 0.00 | 90 | 1013.2 |
| 20260505075514 | 11 | 254 | 1.6 | 3.2 | 0.00 | 0.00 | 0.00 | 90 | 1013.1 |
| 20260505075011 | 11 | 240 | 1.6 | 3.2 | 0.00 | 0.00 | 0.00 | 90 | 1013.1 |
| 20260505074526 | 11 | 242 | 0.0 | 3.2 | 0.00 | 0.00 | 0.00 | 90 | 1013.0 |
| 20260505074007 | 11 | 229 | 1.6 | 3.2 | 0.00 | 0.00 | 0.00 | 90 | 1013.0 |
| 20260505073507 | 11 | 247 | 1.6 | 3.2 | 0.00 | 0.00 | 0.00 | 90 | 1013.0 |
| 20260505073037 | 11 | 241 | 1.6 | 3.2 | 0.00 | 0.00 | 0.00 | 90 | 1013.0 |
| 20260505072509 | 11 | 261 | 1.6 | 3.2 | 0.00 | 0.00 | 0.00 | 89 | 1012.9 |
| 20260505072008 | 11 | 243 | 1.6 | 1.6 | 0.00 | 0.00 | 0.00 | 89 | 1012.9 |
| 20260505071540 | 12 | 259 | 1.6 | 1.6 | 0.00 | 0.00 | 0.00 | 89 | 1012.8 |
| 20260505071011 | 12 | 238 | 1.6 | 1.6 | 0.00 | 0.00 | 0.00 | 89 | 1012.8 |
| 20260505070508 | 12 | 236 | 1.6 | 3.2 | 0.00 | 0.00 | 0.00 | 89 | 1012.6 |
| 20260505070036 | 12 | 230 | 1.6 | 3.2 | 0.00 | 0.00 | 0.00 | 88 | 1012.6 |
| 20260505065508 | 12 | 238 | 1.6 | 1.6 | 0.00 | 0.00 | 0.00 | 88 | 1012.5 |
| 20260505065006 | 12 | 248 | 1.6 | 3.2 | 0.00 | 0.00 | 0.00 | 88 | 1012.4 |
| 20260505064524 | 12 | 250 | 1.6 | 3.2 | 0.00 | 0.00 | 0.00 | 88 | 1012.3 |
| 20260505064011 | 12 | 232 | 1.6 | 3.2 | 0.00 | 0.00 | 0.00 | 87 | 1012.2 |
| 20260505063508 | 12 | 254 | 1.6 | 3.2 | 0.00 | 0.00 | 0.00 | 87 | 1012.1 |
| 20260505063032 | 12 | 250 | 1.6 | 3.2 | 0.00 | 0.00 | 0.00 | 87 | 1012.0 |
| 20260505062511 | 13 | 239 | 1.6 | 3.2 | 0.00 | 0.00 | 0.00 | 86 | 1012.0 |
| 20260505062011 | 13 | 242 | 1.6 | 3.2 | 0.00 | 0.00 | 0.00 | 86 | 1012.0 |
| 20260505061529 | 13 | 234 | 1.6 | 3.2 | 0.00 | 0.00 | 0.00 | 86 | 1011.9 |
| 20260505061008 | 13 | 230 | 1.6 | 3.2 | 0.00 | 0.00 | 0.00 | 86 | 1011.9 |
| 20260505060510 | 13 | 205 | 1.6 | 3.2 | 0.00 | 0.00 | 0.00 | 85 | 1011.8 |
| 20260505060051 | 13 | 260 | 1.6 | 3.2 | 0.00 | 0.00 | 0.00 | 1011.8 | |
| 20260505055513 | 13 | 249 | 3.2 | 3.2 | 0.00 | 0.00 | 0.00 | 1011.8 | |
| 20260505055012 | 13 | 227 | 3.2 | 4.8 | 0.00 | 0.00 | 0.00 | 83 | 1011.8 |
| 20260505054528 | 13 | 234 | 3.2 | 4.8 | 0.00 | 0.00 | 0.00 | 83 | 1011.7 |
| 20260505054019 | 14 | 236 | 3.2 | 3.2 | 0.00 | 0.00 | 0.00 | 83 | 1011.7 |
| 20260505053512 | 14 | 252 | 3.2 | 3.2 | 0.00 | 0.00 | 0.00 | 82 | 1011.7 |
| 20260505053026 | 15 | 231 | 1.6 | 3.2 | 0.00 | 0.00 | 0.00 | 81 | 1011.7 |
| 20260505052511 | 15 | 255 | 1.6 | 3.2 | 0.00 | 0.00 | 0.00 | 80 | 1011.7 |
| 20260505052008 | 15 | 223 | 1.6 | 3.2 | 0.00 | 0.00 | 0.00 | 79 | 1011.6 |
| 20260505051526 | 15 | 256 | 1.6 | 3.2 | 0.00 | 0.00 | 0.00 | 79 | 1011.6 |
| 20260505051007 | 15 | 255 | 1.6 | 3.2 | 0.00 | 0.00 | 0.00 | 79 | 1011.5 |
| 20260505050507 | 15 | 252 | 1.6 | 4.8 | 0.00 | 0.00 | 0.00 | 78 | 1011.5 |
| 20260505041532 | 17 | 289 | 1.6 | 6.4 | 0.00 | 0.00 | 0.00 | 69 | 1011.0 |
| 20260505041012 | 17 | 219 | 1.6 | 6.4 | 0.00 | 0.00 | 0.00 | 70 | 1011.0 |
| 20260505040513 | 17 | 275 | 1.6 | 3.2 | 0.00 | 0.00 | 0.00 | 71 | 1010.9 |
| 20260505040020 | 17 | 161 | 0.0 | 3.2 | 0.00 | 0.00 | 0.00 | 69 | 1010.9 |
| 20260505035506 | 18 | 238 | 0.0 | 3.2 | 0.00 | 0.00 | 0.00 | 69 | 1010.9 |
| 20260505035003 | 18 | 265 | 0.0 | 3.2 | 0.00 | 0.00 | 0.00 | 69 | 1010.7 |
| 20260505034511 | 18 | 263 | 0.0 | 3.2 | 0.00 | 0.00 | 0.00 | 69 | 1010.6 |
| 20260505034006 | 18 | 229 | 0.0 | 3.2 | 0.00 | 0.00 | 0.00 | 69 | 1010.4 |
| 20260505033503 | 18 | 240 | 1.6 | 3.2 | 0.00 | 0.00 | 0.00 | 70 | 1010.3 |
| 20260505033007 | 19 | 266 | 0.0 | 4.8 | 0.00 | 0.00 | 0.00 | 68 | 1010.1 |
| 20260505032508 | 19 | 213 | 1.6 | 4.8 | 0.00 | 0.00 | 0.00 | 65 | 1009.9 |
| 20260505032006 | 19 | 219 | 1.6 | 4.8 | 0.00 | 0.00 | 0.00 | 65 | 1009.9 |
| 20260505031505 | 20 | 215 | 0.0 | 3.2 | 0.00 | 0.00 | 0.00 | 64 | 1009.8 |
| 20260505031005 | 20 | 195 | 1.6 | 3.2 | 0.00 | 0.00 | 0.00 | 63 | 1009.7 |
| 20260505030504 | 20 | 211 | 1.6 | 3.2 | 0.00 | 0.00 | 0.00 | 64 | 1009.6 |
| 20260505030003 | 20 | 200 | 1.6 | 3.2 | 0.00 | 0.00 | 0.00 | 63 | 1009.6 |
| 20260505025507 | 20 | 228 | 1.6 | 3.2 | 0.00 | 0.00 | 0.00 | 61 | 1009.5 |
| 20260505025003 | 20 | 225 | 1.6 | 3.2 | 0.00 | 0.00 | 0.00 | 60 | 1009.5 |
| 20260505024522 | 21 | 246 | 1.6 | 3.2 | 0.00 | 0.00 | 0.00 | 58 | 1009.6 |
| 20260505024005 | 21 | 219 | 1.6 | 3.2 | 0.00 | 0.00 | 0.00 | 56 | 1009.4 |
| 20260505023504 | 21 | 227 | 1.6 | 3.2 | 0.00 | 0.00 | 0.00 | 55 | 1009.3 |
| 20260505023018 | 22 | 218 | 1.6 | 3.2 | 0.00 | 0.00 | 0.00 | 54 | 1009.3 |
| 20260505022502 | 22 | 225 | 1.6 | 3.2 | 0.00 | 0.00 | 0.00 | 53 | 1009.3 |
| 20260505022003 | 22 | 221 | 1.6 | 4.8 | 0.00 | 0.00 | 0.00 | 51 | 1009.3 |
| 20260505021515 | 22 | 213 | 3.2 | 4.8 | 0.00 | 0.00 | 0.00 | 50 | 1009.3 |
| 20260505021007 | 22 | 198 | 3.2 | 6.4 | 0.00 | 0.00 | 0.00 | 49 | 1009.3 |
| 20260505020502 | 22 | 221 | 3.2 | 6.4 | 0.00 | 0.00 | 0.00 | 49 | 1009.3 |
| 20260505020013 | 22 | 235 | 1.6 | 6.4 | 0.00 | 0.00 | 0.00 | 48 | 1009.3 |
| 20260505015505 | 22 | 236 | 3.2 | 8.0 | 0.00 | 0.00 | 0.00 | 48 | 1009.3 |
| 20260505015002 | 23 | 223 | 3.2 | 8.0 | 0.00 | 0.00 | 0.00 | 47 | 1009.4 |
| 20260505014511 | 23 | 218 | 1.6 | 8.0 | 0.00 | 0.00 | 0.00 | 48 | 1009.3 |
| 20260505014007 | 23 | 258 | 1.6 | 8.0 | 0.00 | 0.00 | 0.00 | 48 | 1009.4 |
| 20260505013501 | 23 | 219 | 1.6 | 8.0 | 0.00 | 0.00 | 0.00 | 49 | 1009.3 |
| 20260505013003 | 23 | 237 | 3.2 | 8.0 | 0.00 | 0.00 | 0.00 | 49 | 1009.3 |
| 20260505012505 | 23 | 214 | 3.2 | 8.0 | 0.00 | 0.00 | 0.00 | 50 | 1009.3 |
| 20260505012006 | 23 | 154 | 1.6 | 8.0 | 0.00 | 0.00 | 0.00 | 51 | 1009.4 |
| 20260505011532 | 23 | 144 | 1.6 | 8.0 | 0.00 | 0.00 | 0.00 | 54 | 1009.4 |
| 20260505011004 | 23 | 157 | 1.6 | 8.0 | 0.00 | 0.00 | 0.00 | 59 | 1009.4 |
| 20260505010503 | 23 | 198 | 1.6 | 6.4 | 0.00 | 0.00 | 0.00 | 58 | 1009.4 |
| 20260505010021 | 23 | 211 | 1.6 | 12.9 | 0.00 | 0.00 | 0.00 | 59 | 1009.4 |
| 20260505005503 | 23 | 170 | 4.8 | 12.9 | 0.00 | 0.00 | 0.00 | 59 | 1009.5 |
| 20260505005003 | 23 | 171 | 3.2 | 8.0 | 0.00 | 0.00 | 0.00 | 59 | 1009.5 |
| 20260505004523 | 23 | 148 | 3.2 | 9.7 | 0.00 | 0.00 | 0.00 | 59 | 1009.6 |
| 20260505004006 | 23 | 182 | 0.0 | 9.7 | 0.00 | 0.00 | 0.00 | 59 | 1009.6 |
| 20260505003503 | 23 | 142 | 3.2 | 9.7 | 0.00 | 0.00 | 0.00 | 59 | 1009.6 |
| 20260505003023 | 23 | 214 | 1.6 | 9.7 | 0.00 | 0.00 | 0.00 | 60 | 1009.6 |
| 20260505002505 | 23 | 132 | 1.6 | 9.7 | 0.00 | 0.00 | 0.00 | 59 | 1009.6 |
| 20260505002002 | 23 | 188 | 1.6 | 8.0 | 0.00 | 0.00 | 0.00 | 59 | 1009.5 |
| 20260505001513 | 23 | 165 | 1.6 | 6.4 | 0.00 | 0.00 | 0.00 | 60 | 1009.6 |
| 20260505001008 | 23 | 196 | 1.6 | 6.4 | 0.00 | 0.00 | 0.00 | 59 | 1009.6 |
| 20260505000505 | 22 | 193 | 3.2 | 9.7 | 0.00 | 0.00 | 0.00 | 60 | 1009.6 |
| 20260505000011 | 22 | 101 | 4.8 | 9.7 | 0.00 | 0.00 | 0.00 | 59 | 1009.6 |
| 20260504235506 | 22 | 122 | 4.8 | 9.7 | 0.00 | 0.00 | 0.00 | 59 | 1009.7 |
| 20260504235002 | 22 | 215 | 3.2 | 8.0 | 0.00 | 0.00 | 0.00 | 60 | 1009.7 |
| 20260504234519 | 22 | 150 | 1.6 | 8.0 | 0.00 | 0.00 | 0.00 | 61 | 1009.6 |
| 20260504234002 | 22 | 104 | 3.2 | 9.7 | 0.00 | 0.00 | 0.00 | 60 | 1009.7 |
| 20260504233503 | 22 | 188 | 3.2 | 16.1 | 0.00 | 0.00 | 0.00 | 59 | 1009.8 |
| 20260504233020 | 22 | 103 | 3.2 | 16.1 | 0.00 | 0.00 | 0.00 | 60 | 1009.8 |
| 20260504232505 | 21 | 143 | 4.8 | 8.0 | 0.00 | 0.00 | 0.00 | 62 | 1009.8 |
| 20260504232006 | 21 | 115 | 3.2 | 6.4 | 0.00 | 0.00 | 0.00 | 64 | 1009.8 |
| 20260504231519 | 21 | 102 | 3.2 | 12.9 | 0.00 | 0.00 | 0.00 | 60 | 1009.9 |
| 20260504231009 | 21 | 199 | 4.8 | 12.9 | 0.00 | 0.00 | 0.00 | 61 | 1009.9 |
| 20260504230505 | 22 | 141 | 1.6 | 12.9 | 0.00 | 0.00 | 0.00 | 61 | 1010.0 |
| 20260504230019 | 22 | 96 | 3.2 | 12.9 | 0.00 | 0.00 | 0.00 | 60 | 1010.0 |
| 20260504225507 | 21 | 84 | 3.2 | 12.9 | 0.00 | 0.00 | 0.00 | 60 | 1010.0 |
| 20260504225004 | 22 | 137 | 3.2 | 11.3 | 0.00 | 0.00 | 0.00 | 61 | 1010.1 |
| 20260504224517 | 21 | 145 | 3.2 | 11.3 | 0.00 | 0.00 | 0.00 | 61 | 1010.2 |
| 20260504224006 | 22 | 65 | 3.2 | 8.0 | 0.00 | 0.00 | 0.00 | 60 | 1010.3 |
| 20260504223507 | 22 | 118 | 3.2 | 8.0 | 0.00 | 0.00 | 0.00 | 61 | 1010.3 |
| 20260504223015 | 21 | 157 | 1.6 | 8.0 | 0.00 | 0.00 | 0.00 | 61 | 1010.4 |
| 20260504222508 | 22 | 79 | 3.2 | 8.0 | 0.00 | 0.00 | 0.00 | 61 | 1010.4 |
| 20260504222007 | 21 | 187 | 3.2 | 9.7 | 0.00 | 0.00 | 0.00 | 61 | 1010.4 |
| 20260504221508 | 21 | 161 | 1.6 | 9.7 | 0.00 | 0.00 | 0.00 | 61 | 1010.6 |
| 20260504221005 | 22 | 211 | 1.6 | 8.0 | 0.00 | 0.00 | 0.00 | 59 | 1010.7 |
| 20260504220508 | 22 | 224 | 3.2 | 8.0 | 0.00 | 0.00 | 0.00 | 59 | 1010.8 |
| 20260504220022 | 21 | 200 | 1.6 | 8.0 | 0.00 | 0.00 | 0.00 | 62 | 1010.8 |
| 20260504215505 | 21 | 64 | 1.6 | 11.3 | 0.00 | 0.00 | 0.00 | 62 | 1010.8 |
| 20260504215007 | 21 | 227 | 3.2 | 11.3 | 0.00 | 0.00 | 0.00 | 60 | 1010.9 |
| 20260504214524 | 21 | 230 | 3.2 | 9.7 | 0.00 | 0.00 | 0.00 | 61 | 1011.0 |
| 20260504214005 | 21 | 38 | 1.6 | 9.7 | 0.00 | 0.00 | 0.00 | 61 | 1011.1 |
| 20260504213507 | 21 | 130 | 3.2 | 12.9 | 0.00 | 0.00 | 0.00 | 61 | 1011.1 |
| 20260504213026 | 21 | 188 | 6.4 | 12.9 | 0.00 | 0.00 | 0.00 | 60 | 1011.1 |
| 20260504212507 | 21 | 178 | 4.8 | 9.7 | 0.00 | 0.00 | 0.00 | 60 | 1011.1 |
| 20260504212006 | 21 | 144 | 4.8 | 9.7 | 0.00 | 0.00 | 0.00 | 61 | 1011.1 |
| 20260504211529 | 21 | 124 | 3.2 | 14.5 | 0.00 | 0.00 | 0.00 | 60 | 1011.2 |
| 20260504211007 | 21 | 193 | 3.2 | 14.5 | 0.00 | 0.00 | 0.00 | 61 | 1011.3 |
| 20260504210508 | 21 | 211 | 3.2 | 11.3 | 0.00 | 0.00 | 0.00 | 60 | 1011.3 |
| 20260504210017 | 21 | 209 | 3.2 | 11.3 | 0.00 | 0.00 | 0.00 | 60 | 1011.3 |
| 20260504205504 | 21 | 146 | 3.2 | 11.3 | 0.00 | 0.00 | 0.00 | 63 | 1011.5 |
| 20260504205007 | 21 | 302 | 3.2 | 11.3 | 0.00 | 0.00 | 0.00 | 60 | 1011.6 |
| 20260504204515 | 21 | 181 | 1.6 | 14.5 | 0.00 | 0.00 | 0.00 | 62 | 1011.7 |
| 20260504204007 | 21 | 183 | 3.2 | 14.5 | 0.00 | 0.00 | 0.00 | 60 | 1011.7 |
| 20260504203509 | 21 | 240 | 3.2 | 12.9 | 0.00 | 0.00 | 0.00 | 58 | 1011.8 |
| 20260504203023 | 21 | 136 | 3.2 | 8.0 | 0.00 | 0.00 | 0.00 | 60 | 1011.7 |
| 20260504202508 | 21 | 99 | 3.2 | 12.9 | 0.00 | 0.00 | 0.00 | 59 | 1011.7 |
| 20260504202006 | 21 | 175 | 3.2 | 12.9 | 0.00 | 0.00 | 0.00 | 60 | 1011.8 |
| 20260504201523 | 21 | 219 | 6.4 | 11.3 | 0.00 | 0.00 | 0.00 | 59 | 1011.8 |
| 20260504201004 | 21 | 157 | 3.2 | 9.7 | 0.00 | 0.00 | 0.00 | 60 | 1011.8 |
| 20260504200507 | 21 | 167 | 3.2 | 14.5 | 0.00 | 0.00 | 0.00 | 64 | 1011.9 |
| 20260504200023 | 21 | 232 | 3.2 | 14.5 | 0.00 | 0.00 | 0.00 | 60 | 1011.9 |
| 20260504195506 | 21 | 234 | 4.8 | 14.5 | 0.00 | 0.00 | 0.00 | 62 | 1011.9 |
| 20260504195004 | 21 | 215 | 4.8 | 16.1 | 0.00 | 0.00 | 0.00 | 61 | 1011.9 |
| 20260504194520 | 21 | 169 | 4.8 | 16.1 | 0.00 | 0.00 | 0.00 | 61 | 1011.9 |
| 20260504194009 | 21 | 194 | 1.6 | 11.3 | 0.00 | 0.00 | 0.00 | 62 | 1011.9 |
| 20260504193513 | 21 | 209 | 3.2 | 11.3 | 0.00 | 0.00 | 0.00 | 61 | 1011.9 |
| 20260504193018 | 21 | 223 | 4.8 | 11.3 | 0.00 | 0.00 | 0.00 | 61 | 1012.0 |
| 20260504192509 | 20 | 92 | 3.2 | 11.3 | 0.00 | 0.00 | 0.00 | 64 | 1012.1 |
| 20260504192009 | 20 | 109 | 3.2 | 11.3 | 0.00 | 0.00 | 0.00 | 64 | 1012.1 |
| 20260504191515 | 20 | 90 | 4.8 | 11.3 | 0.00 | 0.00 | 0.00 | 63 | 1012.1 |
| 20260504191008 | 20 | 122 | 3.2 | 9.7 | 0.00 | 0.00 | 0.00 | 64 | 1012.2 |
| 20260504190507 | 20 | 225 | 4.8 | 11.3 | 0.00 | 0.00 | 0.00 | 61 | 1012.3 |
| 20260504190022 | 20 | 173 | 3.2 | 11.3 | 0.00 | 0.00 | 0.00 | 61 | 1012.3 |
| 20260504185507 | 20 | 120 | 1.6 | 11.3 | 0.00 | 0.00 | 0.00 | 67 | 1012.4 |
| 20260504185006 | 19 | 162 | 4.8 | 11.3 | 0.00 | 0.00 | 0.00 | 67 | 1012.3 |
| 20260504184536 | 20 | 113 | 4.8 | 12.9 | 0.00 | 0.00 | 0.00 | 64 | 1012.4 |
| 20260504184008 | 20 | 250 | 3.2 | 12.9 | 0.00 | 0.00 | 0.00 | 62 | 1012.4 |
| 20260504183507 | 20 | 225 | 1.6 | 11.3 | 0.00 | 0.00 | 0.00 | 63 | 1012.5 |
| 20260504183023 | 20 | 216 | 4.8 | 11.3 | 0.00 | 0.00 | 0.00 | 62 | 1012.5 |
| 20260504182507 | 20 | 233 | 1.6 | 11.3 | 0.00 | 0.00 | 0.00 | 65 | 1012.5 |
| 20260504182008 | 19 | 211 | 1.6 | 11.3 | 0.00 | 0.00 | 0.00 | 63 | 1012.6 |
| 20260504181522 | 19 | 178 | 4.8 | 9.7 | 0.00 | 0.00 | 0.00 | 64 | 1012.5 |
| 20260504181008 | 19 | 184 | 3.2 | 11.3 | 0.00 | 0.00 | 0.00 | 66 | 1012.6 |
| 20260504180505 | 19 | 221 | 4.8 | 11.3 | 0.00 | 0.00 | 0.00 | 64 | 1012.6 |
| 20260504180018 | 18 | 187 | 4.8 | 11.3 | 0.00 | 0.00 | 0.00 | 65 | 1012.5 |
| 20260504175507 | 18 | 167 | 3.2 | 11.3 | 0.00 | 0.00 | 0.00 | 66 | 1012.6 |
| 20260504175013 | 18 | 159 | 4.8 | 11.3 | 0.00 | 0.00 | 0.00 | 67 | 1012.6 |
| 20260504174515 | 18 | 226 | 3.2 | 11.3 | 0.00 | 0.00 | 0.00 | 69 | 1012.7 |
| 20260504174004 | 17 | 164 | 3.2 | 11.3 | 0.00 | 0.00 | 0.00 | 68 | 1012.7 |
| 20260504173507 | 17 | 115 | 3.2 | 8.0 | 0.00 | 0.00 | 0.00 | 68 | 1012.7 |
| 20260504173022 | 17 | 219 | 3.2 | 8.0 | 0.00 | 0.00 | 0.00 | 68 | 1012.7 |
| 20260504172508 | 17 | 146 | 3.2 | 8.0 | 0.00 | 0.00 | 0.00 | 69 | 1012.7 |
| 20260504172008 | 17 | 183 | 4.8 | 9.7 | 0.00 | 0.00 | 0.00 | 70 | 1012.7 |
| 20260504171524 | 16 | 113 | 0.0 | 11.3 | 0.00 | 0.00 | 0.00 | 73 | 1012.6 |
| 20260504171008 | 16 | 109 | 6.4 | 11.3 | 0.00 | 0.00 | 0.00 | 72 | 1012.6 |
| 20260504170508 | 17 | 121 | 4.8 | 11.3 | 0.00 | 0.00 | 0.00 | 73 | 1012.7 |
| 20260504151007 | 15 | 174 | 0.0 | 4.8 | 0.00 | 0.00 | 0.00 | 73 | 1012.5 |
| 20260504150507 | 15 | 163 | 0.0 | 4.8 | 0.00 | 0.00 | 0.00 | 74 | 1012.5 |